This demonstration page uses our WeatherBlox Daily Observations layout. Learn more.

Left ArrowRight Arrow

Hourly Observations for May 14, 2021

Temp ( °F °C ) Dew Point ( °F °C ) Humidity (%) Winds ( mph kmh ) Pressure ( in mb ) Visibility ( mi km ) Precip ( " mm )
12:54 am 00:54 Clear 58 14.4 38 3.3 48 48 S 12 19 30.19 1022 10 16.0934 N/A
1:54 am 01:54 Clear 58 14.4 38 3.3 48 48 S 13 20 30.16 1021 10 16.0934 N/A
2:54 am 02:54 Partly Cloudy 57 13.9 38 3.3 49 49 S 10 17 30.16 1021 10 16.0934 N/A
3:54 am 03:54 Mostly Cloudy 57 13.9 38 3.3 49 49 S 12 19 30.15 1021 10 16.0934 N/A
4:54 am 04:54 Partly Cloudy 54 12.2 38 3.3 55 55 SSE 8 13 30.16 1021 10 16.0934 N/A
5:54 am 05:54 Mostly Cloudy 55 12.8 39 3.9 55 55 SSE 12 19 30.15 1021 10 16.0934 N/A
6:54 am 06:54 Cloudy 54 12.2 40 4.4 59 59 S 12 19 30.16 1021 10 16.0934 N/A
7:54 am 07:54 Mostly Cloudy 55 12.8 42 5.6 62 62 SSE 9 15 30.16 1021 10 16.0934 N/A
8:54 am 08:54 Cloudy 58 14.4 44 6.7 60 60 SSE 9 15 30.16 1021 10 16.0934 N/A
9:54 am 09:54 Cloudy 60 15.6 47 8.3 62 62 SE 10 17 30.15 1021 10 16.0934 N/A
10:54 am 10:54 Cloudy 62 16.7 50 10 65 65 SSE 8 13 30.14 1021 10 16.0934 N/A
11:54 am 11:54 Mostly Cloudy 67 19.4 51 10.6 57 57 S 9 15 30.11 1020 10 16.0934 N/A
12:54 pm 12:54 Cloudy 67 19.4 49 9.4 53 53 SSW 16 26 30.1 1019 10 16.0934 N/A
1:54 pm 13:54 Cloudy 68 20 52 11.1 57 57 SSW 10 17 30.09 1019 10 16.0934 N/A
2:54 pm 14:54 Cloudy 68 20 53 11.7 59 59 S 5 7 30.08 1019 10 16.0934 N/A
3:54 pm 15:54 Cloudy 69 20.6 53 11.7 57 57 S 8 13 30.06 1018 10 16.0934 N/A
4:54 pm 16:54 Cloudy 69 20.6 53 11.7 57 57 S 12 19 30.05 1018 10 16.0934 N/A
5:54 pm 17:54 Mostly Cloudy 70 21.1 53 11.7 55 55 SSW 10 17 30.04 1017 10 16.0934 N/A
6:54 pm 18:54 Mostly Cloudy 68 20 54 12.2 61 61 S 6 9 30.04 1017 10 16.0934 N/A
7:54 pm 19:54 Cloudy 66 18.9 55 12.8 68 68 S 8 13 30.03 1017 10 16.0934 0.001 0.001
8:54 pm 20:54 Mostly Cloudy with Light Rain 64 17.8 55 12.8 73 73 S 12 19 30.02 1017 10 16.0934 0.001 0.001
9:54 pm 21:54 Mostly Clear 61 16.1 55 12.8 81 81 S 7 11 30.03 1017 10 16.0934 0.001 0.001
10:54 pm 22:54 Clear 60 15.6 55 12.8 84 84 S 7 11 30.04 1017 10 16.0934 0.001 0.001
11:54 pm 23:54 Clear 58 14.4 53 11.7 84 84 S 7 11 30.02 1017 10 16.0934 N/A

Powered by AerisWeather